Location: ??????
(38.1303°N, 24.0039°E)
Time: 10:24:34
(UTC+00:00)

Cosmos 540 Rocket - Pass Details

Date: 20 June 2021
Orbit: 739 x 754 km, 74.1° (Epoch: 02 August)

Event Time Altitude Azimuth Distance (km) Brightness Sun altitude
Exits shadow 00:15:11 34° 275° (W) 1,216 4.3 -23.3°
Maximum altitude 00:15:56 35° 294° (WNW) 1,175 4.4 -23.2°
Drops below altitude 10° 00:20:37 10° 1° (N) 2,256 6.8 -22.8°
Sets 00:23:10 0° 10° (N) 3,185 7.9 -22.5°
